Weather History for Cullman Regional Airport, LA

Change the Weather History Date:

Wednesday, October 16, 2013

  Actual Average Record
Temperature  
Mean Temperature 65 °F -  
Max Temperature 69 °F - - ()
Min Temperature 61 °F - - ()
Growing Degree Days 15 (Base 50)    
Moisture  
Dew Point 62 °F    
Average Humidity 92    
Maximum Humidity 99    
Minimum Humidity 76    
Precipitation  
Precipitation 0.50 in - - ()
Sea Level Pressure  
Sea Level Pressure 30.02 in    
Wind  
Wind Speed 4 mph (South)    
Max Wind Speed 10 mph    
Max Gust Speed -    
Visibility 7 miles    
Events Rain    
T = Trace of Precipitation, MM = Missing Value Source: NWS Daily Summary

Daily Weather History Graph

Daily Weather History Graph

Search for Another Location

Airport:

Trip Planner

Search our weather history database for the weather conditions in past years. The results will help you decide how hot, cold, wet, or windy it might be!

Date:

Astronomy

Oct. 16, 2013 Rise Set
Actual Time 6:53 AM CDT 6:11 PM CDT
Civil Twilight 6:28 AM CDT 6:36 PM CDT
Nautical Twilight 5:59 AM CDT 7:05 PM CDT
Astronomical Twilight 5:30 AM CDT 7:35 PM CDT
Moon 4:46 PM CDT (10/16) 4:26 AM CDT (10/16)
Length of Visible Light 12h 08m
Length of Day
11h 17m
Waxing Gibbous, 94% of the Moon is Illuminated
Oct 16
Waxing Gibbous
Oct 18
Full
Oct 26
Last Quarter
Nov 3
New
Nov 9
First Quarter

Hourly Weather History & Observations

Time (CDT) Temp. Dew Point Humidity Pressure Visibility Wind Dir Wind Speed Gust Speed Precip Events Conditions
12:15 AM 61.3 °F 58.5 °F 90% 30.06 in 10.0 mi ESE 3.5 mph - N/A   Clear
12:35 AM 61.2 °F 58.5 °F 91% 30.06 in 10.0 mi SE 3.5 mph - N/A   Clear
12:55 AM 61.2 °F 58.5 °F 91% 30.05 in 10.0 mi ESE 3.5 mph - N/A   Clear
1:15 AM 61.5 °F 58.6 °F 90% 30.05 in 10.0 mi SE 3.5 mph - N/A   Clear
1:35 AM 61.7 °F 58.6 °F 90% 30.05 in 10.0 mi SSE 4.6 mph - N/A   Clear
1:55 AM 61.7 °F 58.6 °F 90% 30.03 in 10.0 mi SSE 5.8 mph - N/A   Clear
2:15 AM 61.5 °F 58.8 °F 91% 30.03 in 10.0 mi Calm Calm - N/A   Clear
2:35 AM 61.3 °F 59.0 °F 92% 30.02 in 10.0 mi Calm Calm - N/A   Clear
2:55 AM 61.7 °F 59.0 °F 91% 30.02 in 10.0 mi SSE 3.5 mph - N/A   Scattered Clouds
3:15 AM 61.7 °F 59.0 °F 91% 30.02 in 10.0 mi Calm Calm - N/A   Mostly Cloudy
3:35 AM 61.3 °F 59.0 °F 92% 30.01 in 10.0 mi SSE 3.5 mph - N/A   Mostly Cloudy
3:55 AM 61.7 °F 59.0 °F 91% 30.02 in 10.0 mi South 3.5 mph - N/A   Mostly Cloudy
4:15 AM 61.7 °F 59.0 °F 91% 30.02 in 10.0 mi SSE 3.5 mph - N/A   Mostly Cloudy
4:35 AM 61.7 °F 59.0 °F 91% 30.03 in 10.0 mi Calm Calm - N/A   Mostly Cloudy
4:55 AM 61.7 °F 59.0 °F 91% 30.02 in 10.0 mi SSE 3.5 mph - N/A   Mostly Cloudy
5:15 AM 61.3 °F 59.0 °F 92% 30.03 in 10.0 mi SSE 3.5 mph - N/A   Scattered Clouds
5:35 AM 61.3 °F 59.0 °F 92% 30.03 in 10.0 mi SE 4.6 mph - N/A   Clear
5:55 AM 61.2 °F 58.8 °F 92% 30.04 in 10.0 mi Calm Calm - N/A   Clear
6:15 AM 61.2 °F 58.6 °F 91% 30.04 in 10.0 mi SSE 4.6 mph - N/A   Scattered Clouds
6:35 AM 61.3 °F 58.6 °F 91% 30.04 in 10.0 mi SSE 5.8 mph - N/A   Scattered Clouds
6:55 AM 61.3 °F 58.8 °F 91% 30.05 in 10.0 mi SSE 4.6 mph - N/A   Scattered Clouds
7:15 AM 61.2 °F 59.0 °F 93% 30.06 in 10.0 mi SSE 3.5 mph - N/A   Mostly Cloudy
7:35 AM 61.2 °F 59.0 °F 93% 30.06 in 10.0 mi Calm Calm - N/A   Overcast
7:55 AM 61.3 °F 59.0 °F 92% 30.06 in 10.0 mi SE 3.5 mph - N/A   Mostly Cloudy
8:15 AM 61.7 °F 59.0 °F 91% 30.07 in 10.0 mi Calm Calm - N/A   Scattered Clouds
8:35 AM 61.7 °F 59.0 °F 91% 30.07 in 10.0 mi SSE 3.5 mph - N/A   Mostly Cloudy
8:55 AM 61.9 °F 59.0 °F 90% 30.07 in 10.0 mi SSE 3.5 mph - N/A   Scattered Clouds
9:15 AM 62.2 °F 59.2 °F 90% 30.08 in 10.0 mi SSE 3.5 mph - N/A   Mostly Cloudy
9:35 AM 62.4 °F 59.2 °F 89% 30.08 in 10.0 mi SSE 4.6 mph - N/A   Overcast
9:55 AM 62.6 °F 59.2 °F 89% 30.07 in 10.0 mi SSE 4.6 mph - N/A   Overcast
10:15 AM 62.8 °F 59.2 °F 88% 30.06 in 10.0 mi SSE 5.8 mph - N/A   Mostly Cloudy
10:35 AM 63.1 °F 59.4 °F 87% 30.06 in 10.0 mi South 5.8 mph - N/A   Scattered Clouds
10:55 AM 63.5 °F 59.5 °F 87% 30.06 in 10.0 mi SSE 5.8 mph - N/A   Scattered Clouds
11:15 AM 64.4 °F 59.9 °F 85% 30.05 in 10.0 mi SSE 5.8 mph - N/A Rain Light Rain
11:35 AM 64.9 °F 60.1 °F 84% 30.05 in 10.0 mi SSE 8.1 mph - N/A   Mostly Cloudy
11:55 AM 66.0 °F 60.3 °F 82% 30.05 in 10.0 mi South 9.2 mph - N/A   Mostly Cloudy
12:15 PM 66.9 °F 60.4 °F 80% 30.04 in 10.0 mi South 8.1 mph - N/A   Overcast
12:35 PM 68.2 °F 60.8 °F 77% 30.03 in 10.0 mi South 10.4 mph - N/A   Overcast
12:55 PM 69.4 °F 61.5 °F 76% 30.02 in 10.0 mi SSE 9.2 mph - N/A   Overcast
1:15 PM 69.1 °F 61.7 °F 77% 30.01 in 10.0 mi South 8.1 mph - N/A   Overcast
1:35 PM 68.9 °F 61.9 °F 78% 30.01 in 10.0 mi SSW 8.1 mph - N/A   Overcast
1:55 PM 68.2 °F 62.6 °F 82% 30.00 in 4.0 mi South 6.9 mph - N/A Rain Heavy Rain
2:15 PM 66.4 °F 64.2 °F 93% 29.99 in 3.0 mi South 5.8 mph - N/A   Drizzle
2:35 PM 66.2 °F 64.6 °F 94% 29.99 in 3.0 mi South 5.8 mph - 0.01 in   Drizzle
2:55 PM 66.2 °F 64.9 °F 96% 29.99 in 2.0 mi South 5.8 mph - 0.02 in   Heavy Drizzle
3:15 PM 66.0 °F 65.1 °F 97% 29.99 in 2.0 mi South 5.8 mph - 0.03 in Rain Rain
3:35 PM 65.8 °F 65.1 °F 98% 29.98 in 2.5 mi South 6.9 mph - 0.07 in Rain Rain
3:55 PM 65.8 °F 65.1 °F 98% 29.98 in 2.5 mi South 8.1 mph - 0.09 in Rain Light Rain
4:15 PM 65.8 °F 65.1 °F 98% 29.98 in 3.0 mi South 5.8 mph - 0.01 in Rain Rain
4:35 PM 66.0 °F 65.1 °F 97% 29.97 in 3.0 mi South 5.8 mph - 0.04 in Rain Heavy Rain
4:55 PM 65.8 °F 65.1 °F 98% 29.97 in 3.0 mi South 5.8 mph - 0.06 in Rain Rain
5:15 PM 65.8 °F 65.3 °F 98% 29.97 in 3.0 mi South 8.1 mph - 0.02 in Rain Rain
5:35 PM 65.8 °F 65.3 °F 98% 29.96 in 4.0 mi South 6.9 mph - 0.03 in Rain Light Rain
5:55 PM 66.0 °F 65.1 °F 97% 29.97 in 5.0 mi South 5.8 mph - 0.03 in   Drizzle
6:15 PM 66.0 °F 65.1 °F 97% 29.97 in 5.0 mi South 3.5 mph - 0.01 in   Heavy Drizzle
6:35 PM 65.8 °F 65.3 °F 98% 29.98 in 3.0 mi SSE 5.8 mph - 0.02 in   Heavy Drizzle
6:55 PM 65.7 °F 65.3 °F 99% 29.98 in 3.0 mi South 6.9 mph - 0.05 in Rain Rain
7:15 PM 66.0 °F 65.3 °F 98% 29.98 in 5.0 mi SSW 5.8 mph - N/A Rain Rain
7:35 PM 66.0 °F 65.3 °F 98% 29.98 in 4.0 mi SSW 4.6 mph - 0.01 in   Drizzle
7:55 PM 65.8 °F 65.3 °F 98% 29.98 in 4.0 mi SSW 4.6 mph - 0.01 in   Drizzle
8:15 PM 66.0 °F 65.3 °F 98% 29.98 in 4.0 mi SSW 4.6 mph - 0.01 in Rain Light Rain
8:35 PM 66.0 °F 65.5 °F 98% 29.99 in 4.0 mi SSW 6.9 mph - 0.02 in   Heavy Drizzle
8:55 PM 66.0 °F 65.5 °F 98% 29.99 in 2.5 mi Calm Calm - 0.05 in Rain Rain
9:15 PM 65.8 °F 65.5 °F 99% 29.99 in 3.0 mi SSW 4.6 mph - 0.02 in Rain Heavy Rain
9:35 PM 66.0 °F 65.7 °F 99% 29.99 in 3.0 mi SW 3.5 mph - 0.06 in Rain Rain
9:55 PM 66.2 °F 65.7 °F 98% 29.99 in 2.5 mi Calm Calm - 0.12 in Rain Heavy Rain
10:15 PM 66.2 °F 65.7 °F 98% 29.99 in 4.0 mi SSW 3.5 mph - 0.03 in Rain Rain
10:35 PM 66.2 °F 65.7 °F 98% 29.99 in 5.0 mi SSW 5.8 mph - 0.05 in Rain Rain
10:55 PM 66.2 °F 65.7 °F 98% 29.99 in 7.0 mi SSW 4.6 mph - 0.05 in   Drizzle
11:15 PM 66.2 °F 65.7 °F 98% 29.98 in 5.0 mi SSW 5.8 mph - 0.02 in Rain Rain
11:35 PM 66.2 °F 65.7 °F 98% 29.97 in 7.0 mi SSW 5.8 mph - 0.02 in   Light Drizzle
11:55 PM 66.2 °F 65.7 °F 98% 29.97 in 10.0 mi SW 4.6 mph - 0.02 in   Overcast